{"data":{"norad_id":67660,"intl_designator":"2026-022N","name":"STARLINK-36673","alt_names":[],"object_type":"PAYLOAD","status":"ACTIVE","operator":null,"country":"US","launch_date":"2026-02-02","launch_site_code":"AFWTR","launch_vehicle":null,"mission":null,"orbit_class":"UNKNOWN","rcs_meters":null,"size_class":null,"mass_kg":null,"dimensions":null,"purposes":["comms"],"wikipedia_slug":null,"has_3d_model":false,"image_url":null,"decayed_at":null,"tle_current":{"epoch":"2026-05-25T02:21:20.248128Z","epoch_age_seconds":80718,"freshness":"FRESH","line1":"1 67660U 26022N   26145.09815102  .00021136  00000+0  65512-3 0  9995","line2":"2 67660  97.2847 178.3713 0000965 204.3531 155.7666 15.33448809 17281","mean_motion":15.33448809,"eccentricity":9.65e-5,"inclination_deg":97.2847,"raan_deg":178.3713,"arg_perigee_deg":204.3531,"mean_anomaly_deg":155.7666,"bstar":0.00065512,"rev_number":1728,"period_min":93.90597139914,"perigee_km":464.87142755423,"apogee_km":466.19225564066,"semimajor_km":6843.6688415974,"source":"CELESTRAK","updated_at":"2026-05-25T13:38:21.659280Z"}}}